Change the Weather History Date:

Sunday, January 6, 2013

  Actual Average Record
Temperature  
Mean Temperature 80 °F -  
Max Temperature 84 °F 81 °F 84 °F (1998)
Min Temperature 75 °F 72 °F 69 °F (2001)
Cooling Degree Days 14    
Growing Degree Days 30 (Base 50)    
Moisture  
Dew Point 69 °F    
Average Humidity 72    
Maximum Humidity 89    
Minimum Humidity 58    
Precipitation  
Precipitation 0.20 in 0.08 in - ()
Sea Level Pressure  
Sea Level Pressure 30.08 in    
Wind  
Wind Speed 15 mph ()    
Max Wind Speed 22 mph    
Max Gust Speed 33 mph    
Visibility 6.8 miles    
Events Rain    
Averages and records for this station are not official NWS values.
T = Trace of Precipitation, MM = Missing Value Source: Averaged Metar Reports

Daily Weather History Graph

Daily Weather History Graph

Search for Another Location

Airport or City:

Trip Planner

Search our weather history database for the weather conditions in past years. The results will help you decide how hot, cold, wet, or windy it might be!

Date:

Astronomy

Jan. 06, 2013 Rise Set
Actual Time 6:45 AM AST 5:51 PM AST
Civil Twilight 6:21 AM AST 6:15 PM AST
Nautical Twilight 5:54 AM AST 6:42 PM AST
Astronomical Twilight 5:28 AM AST 7:08 PM AST
Moon 1:14 AM AST (1/6) 1:00 PM AST (1/6)
Length of Visible Light 11h 53m
Length of Day
11h 06m
Waning Crescent, 34% of the Moon is Illuminated
Jan 6
Waning Crescent
Jan 11
New
Jan 18
First Quarter
Jan 27
Full
Feb 3
Last Quarter

Hourly Weather History & Observations

Time (AST) Temp. Heat Index Dew Point Humidity Pressure Visibility Wind Dir Wind Speed Gust Speed Precip Events Conditions
12:00 AM 78.8 °F - 68.0 °F 69% 30.09 in 6.2 mi East 16.1 mph - N/A   Mostly Cloudy
1:00 AM 78.8 °F - 68.0 °F 69% 30.09 in 6.2 mi East 18.4 mph - N/A   Scattered Clouds
2:00 AM 78 °F - 69 °F 67% 30.09 in 16 mi East 17.3 mph - -   Mostly Cloudy
2:00 AM 78.8 °F - 69.8 °F 74% 30.06 in 6.2 mi East 17.3 mph - N/A   Mostly Cloudy
3:00 AM 78.8 °F - 68.0 °F 69% 30.06 in 6.2 mi East 12.7 mph - N/A   Partly Cloudy
4:00 AM 78.8 °F - 68.0 °F 69% 30.06 in 6.2 mi East 16.1 mph - N/A   Scattered Clouds
5:00 AM 78.8 °F - 68.0 °F 69% 30.06 in 6.2 mi East 15.0 mph - N/A   Mostly Cloudy
6:00 AM 78.8 °F - 68.0 °F 69% 30.06 in 6.2 mi ENE 15.0 mph - N/A   Scattered Clouds
7:00 AM 78.8 °F - 68.0 °F 69% 30.09 in 6.2 mi ENE 16.1 mph - N/A   Scattered Clouds
8:00 AM 79 °F - 68 °F 61% 30.12 in 9 mi East 15.0 mph - - Rain Light Rain Showers
8:00 AM 78.8 °F - 68.0 °F 69% 30.12 in 6.2 mi East 15.0 mph - N/A Rain Light Rain Showers
9:00 AM 77.0 °F - 69.8 °F 78% 30.12 in 6.2 mi East 15.0 mph - N/A   Scattered Clouds
10:00 AM 80.6 °F 83.9 °F 69.8 °F 70% 30.12 in 6.2 mi East 16.1 mph - N/A   Scattered Clouds
11:00 AM 82 °F - 70 °F 59% 30.13 in 22 mi East 16.1 mph - -   Partly Cloudy
11:00 AM 82.4 °F 86.3 °F 69.8 °F 66% 30.12 in 6.2 mi East 16.1 mph 31.1 mph N/A   Scattered Clouds
12:00 PM 84.2 °F 87.3 °F 68.0 °F 58% 30.09 in 6.2 mi East 16.1 mph - N/A   Scattered Clouds
12:44 PM 75.2 °F - 68.0 °F 78% 30.09 in 3.1 mi East 15.0 mph - N/A Rain Rain Showers
1:00 PM 75.2 °F - 69.8 °F 83% 30.09 in 5.6 mi East 16.1 mph 33.4 mph N/A Rain Light Rain Showers
2:00 PM 80 °F - 71 °F 68% 30.06 in 16 mi East 17.3 mph - - Rain Light Rain Showers
2:00 PM 80.6 °F 84.6 °F 71.6 °F 74% 30.04 in 6.2 mi East 15.0 mph - N/A   Mostly Cloudy
3:00 PM 80.6 °F 83.9 °F 69.8 °F 70% 30.04 in 6.2 mi East 19.6 mph - N/A   Partly Cloudy
4:00 PM 80.6 °F 83.9 °F 69.8 °F 70% 30.04 in 6.2 mi East 15.0 mph - N/A   Scattered Clouds
5:00 PM 80 °F - 70 °F 65% 30.06 in 25 mi East 17.3 mph - -   Partly Cloudy
5:00 PM 80.6 °F 83.9 °F 69.8 °F 70% 30.04 in 6.2 mi East 16.1 mph - N/A   Scattered Clouds
6:00 PM 78.8 °F - 69.8 °F 74% 30.06 in 6.2 mi East 15.0 mph 28.8 mph N/A   Scattered Clouds
7:00 PM 78.8 °F - 69.8 °F 74% 30.06 in 6.2 mi East 17.3 mph - N/A   Scattered Clouds
8:00 PM 79 °F - 70 °F 67% 30.09 in 19 mi East 21.9 mph - -   Partly Cloudy
8:00 PM 78.8 °F - 69.8 °F 74% 30.06 in 6.2 mi East 20.7 mph - N/A   Partly Cloudy
9:00 PM 77.0 °F - 69.8 °F 78% 30.09 in 6.2 mi East 18.4 mph - N/A   Scattered Clouds
10:00 PM 75.2 °F - 69.8 °F 83% 30.09 in 6.2 mi East 19.6 mph - N/A   Mostly Cloudy
11:00 PM 75 °F - 71 °F 83% 30.10 in 2 mi SE 15.0 mph - - Rain Heavy Rain Showers
11:00 PM 75.2 °F - 71.6 °F 89% 30.09 in 2.5 mi East 16.1 mph - N/A Rain Rain Showers
11:15 PM 75.2 °F - 71.6 °F 89% 30.09 in 3.7 mi ESE 17.3 mph - N/A Rain Light Rain Showers
11:22 PM 75.2 °F - 71.6 °F 89% 30.09 in 2.8 mi ESE 17.3 mph - N/A Rain Rain Showers